Regional Weather Roundup
Issued by NWS Kansas City/Pleasant Hill, MO

Home | Current Version | Previous Version | Graphics & Text | Print | Product List | Glossary Off
Versions: 1 2 3 4 5 6 7 8 9 10 11 12 13 14 15 16 17 18 19 20 21 22 23 24 25 26 27 28 29 30 31 32 33 34 35 36 37 38 39 40 41 42 43 44 45 46 47 48 49 50

000
ASUS43 KEAX 280710
RWREAX

WEATHER ROUNDUP FOR EASTERN KANSAS AND NORTHWEST MISSOURI
NATIONAL WEATHER SERVICE KANSAS CITY/PLEASANT HILL MO
200 AM CDT THU APR 28 2016

KSZ040-057-103>105-MOZ028-029-037-043-280800-
...KANSAS CITY METROPOLITAN AREA...

CITY           SKY/WX    TMP DP  RH WIND       PRES   REMARKS
K.C. INTL      CLOUDY    48  39  71 W15       29.72R
K.C. DOWNTOWN  CLEAR     52  39  61 W17G25    29.73R
LEES SUMMIT    CLEAR     51  41  68 W10       29.74R
OLATHE - IXD   CLEAR     49  39  68 W12G23    29.75R
OLATHE - OJC   CLEAR     49  39  68 W10G22    29.74R
LAWRENCE       PTCLDY    48  39  71 W18G31    29.75R

$$

MOZ001>008-011>017-020>025-030>033-038>040-044>046-053-054-280800-
...NORTHERN AND CENTRAL MISSOURI...

CITY           SKY/WX    TMP DP  RH WIND       PRES   REMARKS
ST. JOSEPH     CLOUDY    48  41  76 W13       29.70R
MOSBY          SUNNY     50  41  71 W5        29.72F
WARRENSBURG    CLEAR     52  46  82 SW9       29.75R
WHITEMAN AFB   CLEAR     54  51  89 W10       29.73R
CLINTON        CLEAR     55  48  76 SW7       29.76R
SEDALIA        CLEAR     54  50  86 SW8       29.74S
WARSAW         NOT AVBL
CHILLICOTHE      N/A     46  32  58 CALM      29.71R
KIRKSVILLE     CLEAR     48  46  93 E5        29.70F

$$

MOZ041-047>049-056>058-063>065-088>090-097-280800-
...EASTERN AND SOUTHERN MISSOURI...

CITY           SKY/WX    TMP DP  RH WIND       PRES   REMARKS
ST. LOUIS INTL CLEAR     62  52  69 NW6       29.74R
SPIRIT OF STL  CLEAR     60  53  77 W6        29.73R
COLUMBIA       CLEAR     52  51  97 S3        29.73F
JEFFERSON CITY CLEAR     55  53  93 E3        29.74S
ROLLA          CLEAR     53  49  86 SW5       29.74S
OSAGE BEACH    CLEAR     55  45  67 SW3       29.76S
SPRINGFIELD    CLEAR     56  47  71 W9        29.79R
JOPLIN         CLEAR     52  48  86 SW7       29.81R
WEST PLAINS    CLEAR     55  49  80 MISG      29.79S

$$

IAZ060-094-KSZ022-034>040-054-083-096-NEZ052-066-093-280800-
...KANSAS...SOUTHEAST NEBRASKA AND IOWA...

CITY           SKY/WX    TMP DP  RH WIND       PRES   REMARKS
TOPEKA         MOCLDY    48  37  65 W16G24    29.75R
MANHATTAN      CLEAR     46  35  65 W14G21    29.77S
EMPORIA        CLEAR     47  39  74 W9        29.79R
CHANUTE        CLEAR     51  43  74 W8        29.80S
WICHITA        CLEAR     52  39  61 N16G25    29.79F
OMAHA          CLOUDY    47  44  90 S3        29.64R
LINCOLN        CLOUDY    50  45  83 N14       29.67R
FALLS CITY     CLOUDY    48  42  80 W17G24    29.67R
LAMONI         CLOUDY    47  41  80 SW13      29.66F
DES MOINES     PTCLDY    47  40  76 S7        29.65F

$$




USA.gov is the U.S. government's official web portal to all federal, state and local government web resources and services.